Regional Weather Roundup
Issued by NWS

Home | Current Version | Previous Version | Text Only | Print | Product List | Glossary On
Versions: 1 2 3 4 5 6 7 8 9 10 11 12 13 14 15 16 17 18 19 20 21 22 23 24 25 26 27 28 29 30 31 32 33 34 35 36 37 38 39 40 41 42 43 44 45 46 47 48 49 50
000
ASUS46 KPQR 150810
RWROR

OREGON REGIONAL WEATHER ROUNDUP
NATIONAL WEATHER SERVICE PORTLAND OR
100 AM PDT TUE OCT 15 2019

NOTE: "FAIR" INDICATES FEW OR NO CLOUDS BELOW 12,000 FEET WITH
NO SIGNIFICANT WEATHER AND/OR OBSTRUCTIONS TO VISIBILITY.

ORZ001>013-150900-
NORTHWEST OREGON


CITY           SKY/WX    TMP DP  RH WIND       PRES   REMARKS
ASTORIA        NOT AVBL
TILLAMOOK      CLEAR     43  41  93 SE6       30.01S
NEWPORT        CLEAR     46  43  87 E5        30.02S
PORTLAND       NOT AVBL
VANCOUVER WA   NOT AVBL
SCAPPOOSE      NOT AVBL
HILLSBORO      NOT AVBL
AURORA         NOT AVBL
MCMINNVILLE    NOT AVBL
SALEM          NOT AVBL
EUGENE         NOT AVBL
$$

ORZ021-028-150900-
SOUTHWEST OREGON


CITY           SKY/WX    TMP DP  RH WIND       PRES   REMARKS
NORTH BEND     NOT AVBL
ROSEBURG       NOT AVBL
SEXTON SUMMIT  CLEAR     53  37  54 S13       30.06F
GRANTS PASS    FAIR      45  41  87 CALM      30.07R
MEDFORD        NOT AVBL
$$

ORZ014>016-041-150900-
COLUMBIA GORGE


CITY           SKY/WX    TMP DP  RH WIND       PRES   REMARKS
TROUTDALE      NOT AVBL
$$

ORZ029>031-041-044-049-050-061>064-502-503-505>511-150900-
EASTERN OREGON


CITY           SKY/WX    TMP DP  RH WIND       PRES   REMARKS
MADRAS         NOT AVBL
REDMOND        NOT AVBL
BEND           NOT AVBL
PRINEVILLE     CLEAR     34  27  75 CALM      30.10S
KLAMATH FALLS  NOT AVBL
HERMISTON      NOT AVBL
PENDLETON      NOT AVBL
JOHN DAY       CLEAR     42  31  66 E8        30.13F
MEACHAM        CLEAR     28  25  88 CALM      30.10F
LA GRANDE      NOT AVBL
BAKER CITY     NOT AVBL
BURNS          NOT AVBL
ROME             N/A     37  23  56 S9        30.15R
ONTARIO        CLEAR     37  30  75 W5        30.16R
$$



USA.gov is the U.S. government's official web portal to all federal, state and local government web resources and services.